Location: Appeville
(49.3218°N, 1.3427°W)
Time: 14:14:38
(UTC+00:00)

Cosmos 1140 Rocket - Pass Details

Date: 08 December 2019
Orbit: 744 x 768 km, 74.1° (Epoch: 19 January)

Event Time Altitude Azimuth Distance (km) Brightness Sun altitude
Exits shadow 04:32:43 54° 66° (ENE) 922 4.1 -30.6°
Drops below altitude 10° 04:37:43 10° 139° (SE) 2,293 6.4 -29.8°
Sets 04:40:08 0° 144° (SE) 3,218 7.2 -29.4°
